Flag for Venezuela Weather past 2 weeks in Caracas, Venezuela

Now
82 °F

Passing clouds.


Feels Like: 91 °F
Forecast: N/A
Wind: 3 mph from Northeast

Location: Caracas / Maiquetia Aerop. Intl. Simon Bolivar

Current Time: Jul 3, 2015 at 7:28:36 PM

Latest Report: Jul 3, 2015 at 6:30 PM


Visibility: N/A

Pressure: 29.83 "Hg (27.01 "Hg at 875m altitude)

Humidity: 84%

Dew point: 77 °F

Location of CaracasLocation

Historic Weather in Caracas — Graph

°F

Caracas temperature yesterday

Maximum temperature yesterday: 86 °F (at 11:30 AM)
Minimum temperature yesterday: 77 °F (at 12:30 AM)
Average temperature yesterday: 80 °F

Past Weeks' High & Low Weather Summary

 TemperatureHumidityPressure
High88 °F (Jun 21, 2:30 PM)100% (Jun 19, 12:30 AM)29.98 "Hg (Jun 19, 12:30 AM)
Low36 °F (Jun 19, 12:30 AM)22% (Jun 18, 8:30 PM)29.80 "Hg (Jun 19, 5:30 PM)
Average80 °F80%29.92 "Hg
* Reported Jun 18 5:30 PM — Jul 3 5:30 PM, Caracas, Weather by CustomWeather, © 2015

Note: Actual official high and low records may vary slightly from our data, if they occured in-between our weather recording intervals... More about our weather records

Advertising

Caracas weather history for previous 24 hours

 ConditionsComfort  
Time TempWeatherWind HumidityBarometerVisibility
5:30 PM
Fri, Jul 3
84 °FScattered clouds.3 mph84%29.83 "HgN/A
4:30 PM84 °FScattered clouds.5 mph84%29.83 "HgN/A
3:30 PM84 °FScattered clouds.3 mph74%29.86 "HgN/A
2:30 PM86 °FScattered clouds.6 mph70%29.86 "HgN/A
1:30 PM84 °FScattered clouds.5 mph79%29.89 "HgN/A
12:30 PM86 °FPassing clouds.3 mph70%29.89 "HgN/A
11:30 AM86 °FPassing clouds.5 mph66%29.92 "HgN/A
10:30 AM86 °FPassing clouds.3 mph70%29.92 "HgN/A
9:30 AM81 °FPassing clouds.2 mph74%29.92 "HgN/A
8:30 AM77 °FPassing clouds.2 mph83%29.92 "HgN/A
7:30 AM73 °FPassing clouds.No wind89%29.92 "HgN/A
6:30 AM75 °FPassing clouds.No wind83%29.92 "HgN/A
5:30 AM75 °FPassing clouds.No wind83%29.92 "HgN/A
4:30 AM75 °FPassing clouds.No wind83%29.89 "HgN/A
3:30 AM77 °FPassing clouds.No wind83%29.92 "HgN/A
2:30 AM77 °FPassing clouds.No wind83%29.92 "HgN/A
1:30 AM77 °FPassing clouds.No wind83%29.92 "HgN/A
11:30 PM
Thu, Jul 2
77 °FPassing clouds.No wind83%29.92 "HgN/A
10:30 PM77 °FPassing clouds.No wind79%29.92 "HgN/A
9:30 PM77 °FPassing clouds.3 mph79%29.92 "HgN/A
8:30 PM77 °FPassing clouds.3 mph83%29.89 "HgN/A
7:30 PM77 °FWarm.No wind79%29.89 "HgN/A
Weather by CustomWeather, © 2015

See weather overviewHow to use our weather pages